When you browse on this site, cookies collect data to enhance your experience and personalize the content and advertising you see.
Visit our Privacy Policy to learn more. By continuing to use the site, you agree to this use of cookies and data.
  • en Suisse
  • Liste des pays
  • À 7 jours
  • Température de l'eau
  • Carte météo
  • Widgets météo
  • user-avatar
    Se connecter

    Météo par heure à Orléans

    Ce jour, 24 Février, Lundi

    Heure Température Précipitation Vent Pression Humidité
    00:00 +10°C° 0 mm 5 m/s 760 mmHg 91%
    01:00 +10°C° 0 mm 5 m/s 760 mmHg 92%
    02:00 +10°C° 0 mm 5 m/s 759 mmHg 92%
    03:00 +10°C° 0 mm 5 m/s 759 mmHg 92%
    04:00 +10°C° 0 mm 5 m/s 758 mmHg 91%
    05:00 +10°C° 0 mm 5 m/s 758 mmHg 90%
    06:00 +10°C° 0 mm 5 m/s 758 mmHg 89%
    07:00 +10°C° 0 mm 5 m/s 757 mmHg 88%
    08:00 +10°C° 0 mm 5 m/s 757 mmHg 87%
    09:00 +10°C° 0 mm 6 m/s 757 mmHg 86%
    10:00 +10°C° 0 mm 6 m/s 756 mmHg 85%
    11:00 +10°C° 0 mm 6 m/s 756 mmHg 83%
    12:00 +10°C° 0 mm 7 m/s 755 mmHg 81%
    13:00 +11°C° 0 mm 7 m/s 754 mmHg 78%
    14:00 +11°C° 0 mm 7 m/s 754 mmHg 75%
    15:00 +12°C° 0 mm 8 m/s 753 mmHg 73%
    16:00 +11°C° 0 mm 7 m/s 752 mmHg 74%
    17:00 +10°C° 0 mm 7 m/s 752 mmHg 76%
    18:00 +10°C° 0 mm 7 m/s 752 mmHg 78%
    19:00 +9°C° 0 mm 7 m/s 752 mmHg 78%
    20:00 +9°C° 0 mm 7 m/s 751 mmHg 78%
    21:00 +8°C° 0 mm 7 m/s 751 mmHg 78%
    22:00 +8°C° 0 mm 7 m/s 751 mmHg 79%
    23:00 +8°C° 0 mm 7 m/s 750 mmHg 80%

    Demain, 25 Février, Mardi

    Heure Température Précipitation Vent Pression Humidité
    00:00 +8°C° 0 mm 7 m/s 750 mmHg 81%
    01:00 +8°C° 0.4 mm 7 m/s 749 mmHg 84%
    02:00 +8°C° 0.4 mm 7 m/s 748 mmHg 87%
    03:00 +8°C° 0.4 mm 7 m/s 748 mmHg 90%
    04:00 +8°C° 1 mm 6 m/s 748 mmHg 90%
    05:00 +8°C° 1 mm 6 m/s 747 mmHg 90%
    06:00 +8°C° 1 mm 5 m/s 747 mmHg 90%
    07:00 +8°C° 0.2 mm 5 m/s 747 mmHg 84%
    08:00 +7°C° 0.2 mm 5 m/s 747 mmHg 78%
    09:00 +7°C° 0.2 mm 5 m/s 747 mmHg 71%
    10:00 +7°C° 0 mm 5 m/s 747 mmHg 70%
    11:00 +7°C° 0 mm 6 m/s 747 mmHg 68%
    12:00 +7°C° 0 mm 6 m/s 747 mmHg 66%
    13:00 +8°C° 0.1 mm 6 m/s 746 mmHg 66%
    14:00 +8°C° 0.1 mm 7 m/s 746 mmHg 66%
    15:00 +8°C° 0.1 mm 7 m/s 745 mmHg 66%
    16:00 +6°C° 0.2 mm 7 m/s 745 mmHg 70%
    17:00 +6°C° 0.2 mm 7 m/s 745 mmHg 73%
    18:00 +6°C° 0.2 mm 7 m/s 744 mmHg 77%
    19:00 +5°C° 0.3 mm 8 m/s 744 mmHg 77%
    20:00 +5°C° 0.3 mm 9 m/s 744 mmHg 77%
    21:00 +3°C° 0.3 mm 9 m/s 743 mmHg 78%
    22:00 +2°C° 0.2 mm 9 m/s 744 mmHg 79%
    23:00 +1°C° 0.2 mm 9 m/s 744 mmHg 81%

    Après-demain, 26 Février, Mercredi

    Heure Température Précipitation Vent Pression Humidité
    00:00 +1°C° 0.2 mm 8 m/s 744 mmHg 82%
    01:00 0°C° 0.3 mm 8 m/s 744 mmHg 84%
    02:00 -1°C° 0.3 mm 8 m/s 744 mmHg 86%
    03:00 -1°C° 0.3 mm 8 m/s 744 mmHg 88%
    04:00 -1°C° 0 mm 8 m/s 744 mmHg 85%
    05:00 -1°C° 0 mm 8 m/s 744 mmHg 81%
    06:00 -1°C° 0 mm 8 m/s 744 mmHg 78%
    07:00 0°C° 0.3 mm 8 m/s 745 mmHg 74%
    08:00 0°C° 0.3 mm 8 m/s 745 mmHg 71%
    09:00 +1°C° 0.3 mm 8 m/s 746 mmHg 68%
    10:00 +2°C° 0.2 mm 8 m/s 747 mmHg 65%
    11:00 +3°C° 0.2 mm 9 m/s 747 mmHg 63%
    12:00 +3°C° 0.2 mm 9 m/s 748 mmHg 61%
    13:00 +3°C° 0.1 mm 9 m/s 748 mmHg 58%
    14:00 +4°C° 0.1 mm 8 m/s 748 mmHg 56%
    15:00 +5°C° 0.1 mm 8 m/s 749 mmHg 53%
    16:00 +4°C° 0 mm 7 m/s 749 mmHg 59%
    17:00 +3°C° 0 mm 5 m/s 749 mmHg 64%
    18:00 +3°C° 0 mm 4 m/s 750 mmHg 70%
    19:00 +1°C° 0 mm 4 m/s 750 mmHg 74%
    20:00 +1°C° 0 mm 4 m/s 751 mmHg 77%
    21:00 +1°C° 0 mm 3 m/s 752 mmHg 81%
    22:00 +2°C° 0 mm 3 m/s 751 mmHg 83%
    23:00 +2°C° 0 mm 3 m/s 751 mmHg 85%

    27 Février, Jeudi

    Heure Température Précipitation Vent Pression Humidité
    00:00 +2°C° 0 mm 3 m/s 751 mmHg 86%
    01:00 +2°C° 0 mm 3 m/s 751 mmHg 87%
    02:00 +2°C° 0 mm 3 m/s 751 mmHg 88%
    03:00 +2°C° 0 mm 3 m/s 751 mmHg 89%
    04:00 +1°C° 0 mm 4 m/s 750 mmHg 88%
    05:00 +1°C° 0 mm 4 m/s 749 mmHg 86%
    06:00 +1°C° 0 mm 5 m/s 749 mmHg 85%
    07:00 +2°C° 0.8 mm 6 m/s 748 mmHg 87%
    08:00 +2°C° 0.8 mm 7 m/s 746 mmHg 89%
    09:00 +2°C° 0.8 mm 8 m/s 745 mmHg 92%
    10:00 +5°C° 1.4 mm 9 m/s 744 mmHg 91%
    11:00 +6°C° 1.4 mm 9 m/s 744 mmHg 90%
    12:00 +7°C° 1.4 mm 10 m/s 743 mmHg 90%
    13:00 +8°C° 0.5 mm 9 m/s 742 mmHg 89%
    14:00 +8°C° 0.5 mm 9 m/s 742 mmHg 88%
    15:00 +8°C° 0.5 mm 9 m/s 742 mmHg 87%
    16:00 +8°C° 0.3 mm 9 m/s 742 mmHg 88%
    17:00 +9°C° 0.3 mm 8 m/s 742 mmHg 89%
    18:00 +10°C° 0.3 mm 8 m/s 742 mmHg 89%
    19:00 +10°C° 0.1 mm 8 m/s 743 mmHg 89%
    20:00 +9°C° 0.1 mm 8 m/s 743 mmHg 88%
    21:00 +9°C° 0.1 mm 7 m/s 744 mmHg 88%
    22:00 +9°C° 0.1 mm 7 m/s 744 mmHg 84%
    23:00 +8°C° 0.1 mm 7 m/s 745 mmHg 80%

    28 Février, Vendredi

    Heure Température Précipitation Vent Pression Humidité
    00:00 +6°C° 0.1 mm 7 m/s 745 mmHg 76%
    01:00 +6°C° 0 mm 7 m/s 746 mmHg 77%
    02:00 +7°C° 0 mm 6 m/s 746 mmHg 78%
    03:00 +7°C° 0 mm 6 m/s 747 mmHg 79%
    04:00 +5°C° 0 mm 6 m/s 747 mmHg 79%
    05:00 +6°C° 0 mm 5 m/s 748 mmHg 79%
    06:00 +6°C° 0 mm 5 m/s 748 mmHg 79%
    07:00 +6°C° 0 mm 5 m/s 748 mmHg 78%
    08:00 +7°C° 0 mm 5 m/s 748 mmHg 77%
    09:00 +7°C° 0 mm 5 m/s 748 mmHg 76%
    10:00 +7°C° 0.3 mm 4 m/s 748 mmHg 81%
    11:00 +7°C° 0.3 mm 4 m/s 747 mmHg 85%
    12:00 +7°C° 0.3 mm 4 m/s 747 mmHg 89%
    13:00 +8°C° 1 mm 5 m/s 746 mmHg 90%
    14:00 +8°C° 1 mm 6 m/s 744 mmHg 91%
    15:00 +9°C° 1 mm 7 m/s 743 mmHg 93%
    16:00 +9°C° 0.6 mm 8 m/s 742 mmHg 90%
    17:00 +8°C° 0.6 mm 9 m/s 741 mmHg 88%
    18:00 +8°C° 0.6 mm 10 m/s 740 mmHg 86%
    19:00 +9°C° 0.6 mm 10 m/s 740 mmHg 86%
    20:00 +9°C° 0.6 mm 10 m/s 740 mmHg 86%
    21:00 +9°C° 0.6 mm 10 m/s 740 mmHg 87%
    22:00 +10°C° 0.9 mm 9 m/s 740 mmHg 86%
    23:00 +9°C° 0.9 mm 8 m/s 740 mmHg 85%

    29 Février, Samedi

    Heure Température Précipitation Vent Pression Humidité
    00:00 +9°C° 0.9 mm 7 m/s 740 mmHg 84%
    01:00 +7°C° 0.2 mm 8 m/s 740 mmHg 83%
    02:00 +7°C° 0.2 mm 9 m/s 739 mmHg 82%
    03:00 +7°C° 0.2 mm 10 m/s 739 mmHg 81%
    04:00 +6°C° 0.3 mm 9 m/s 740 mmHg 79%
    05:00 +5°C° 0.3 mm 9 m/s 740 mmHg 77%
    06:00 +3°C° 0.3 mm 9 m/s 741 mmHg 76%
    07:00 +4°C° 0 mm 8 m/s 742 mmHg 72%
    08:00 +4°C° 0 mm 8 m/s 743 mmHg 69%
    09:00 +4°C° 0 mm 8 m/s 744 mmHg 66%
    10:00 +5°C° 0 mm 7 m/s 744 mmHg 62%
    11:00 +6°C° 0 mm 7 m/s 744 mmHg 58%
    12:00 +6°C° 0 mm 7 m/s 744 mmHg 55%
    13:00 +6°C° 0 mm 7 m/s 743 mmHg 62%
    14:00 +6°C° 0 mm 7 m/s 742 mmHg 70%
    15:00 +6°C° 0 mm 7 m/s 741 mmHg 78%
    16:00 +6°C° 0.6 mm 7 m/s 739 mmHg 81%
    17:00 +6°C° 0.6 mm 8 m/s 738 mmHg 84%
    18:00 +6°C° 0.6 mm 8 m/s 736 mmHg 87%
    19:00 +7°C° 1.1 mm 9 m/s 735 mmHg 86%
    20:00 +8°C° 1.1 mm 10 m/s 734 mmHg 85%
    21:00 +9°C° 1.1 mm 11 m/s 732 mmHg 83%
    22:00 +7°C° 0.1 mm 10 m/s 733 mmHg 83%
    23:00 +5°C° 0.1 mm 9 m/s 734 mmHg 82%
    Voir plus